Location: Bourg-d�Oueil
(42.8588°N, 0.4991°E)
Time: 17:21:32
(UTC+00:00)

Tiangong - Pass Details

Date: 01 December 2022
Orbit: 383 x 386 km, 41.5° (Epoch: 30 January)

Event Time Altitude Azimuth Distance (km) Brightness Sun altitude
Rises 17:38:44 0° 232° (SW) 2,249 3.2 -13.2°
Reaches altitude 10° 17:40:56 10° 221° (SW) 1,400 1.6 -13.6°
Maximum altitude 17:43:45 29° 158° (SSE) 731 -0.8 -14.1°
Enters shadow 17:45:00 22° 118° (ESE) 908 -0.7 -14.3°
